[[{"header":{"parameterUnit":"m.s-1","parameterCategory":1,"la1":30.2991,"la2":30.254,"lo1":-89.0895,"lo2":-89.0444,"dy":0.0017,"dx":0.0017,"nx":28,"ny":28,"refTime":"2025-09-19T03:00:00:Z","depth":0,"parameterNumber":2,"parameterNumberName":"U-component_of_WINDS"},"data":[0,0,0,0,0,0,0,0,0,0,0,0,0,0,0,0,0,0,0,0,0,0,0,0,0,0,0,0,0,0,0,0,0,0,0,0,0,0,0,0,0,0,0,0,0,0,0,0,0,0,0,0,0,0,0,0,0,0,0.8264,0.8265,0,0.8283,0.8283,0.8283,0.8288,0.8288,0.8288,0.8288,0.8307,0.8307,0.8308,0,0,0,0,0,0,0,0,0,0,0,0,0,0.8235,0.8235,0.8264,0.8265,0.8265,0.8283,0.8283,0.8283,0.8288,0.8288,0.8288,0.8288,0.8307,0.8307,0.8308,0,0,0,0,0,0,0,0,0,0,0,0,0,0.825,0.8235,0.8264,0.827,0.827,0.8282,0.8283,0.8283,0.8288,0.8288,0.8288,0.8288,0.8306,0.8307,0.8308,0.8316,0,0,0.8311,0.8311,0,0,0,0,0,0,0,0,0.8249,0.8251,0.8269,0.8269,0.827,0.8283,0.8279,0.8294,0.8289,0.8282,0.8288,0.8288,0.8299,0.83,0.8304,0.8317,0.8318,0.8311,0.8311,0.8312,0.8312,0,0,0,0,0,0,0,0.8248,0.825,0.8272,0.8269,0.827,0.8271,0.8273,0.8282,0.8291,0.8282,0.8283,0.8285,0.8299,0.8303,0.8305,0.8318,0.8311,0.8312,0.8312,0.8312,0.834,0.834,0,0,0,0,0,0,0.8246,0.8249,0.8271,0.8272,0.8259,0.8272,0.8274,0.8279,0.8291,0.8292,0.8285,0.8285,0.8302,0.8304,0.8305,0.8316,0.8312,0.8313,0.8313,0.8339,0.834,0.834,0,0,0,0,0,0,0.8245,0.8248,0.827,0.8261,0.8264,0.8273,0.8278,0.8279,0.8283,0.8293,0.8294,0.8287,0.8302,0.8304,0.8314,0.8317,0.8313,0.8314,0.8339,0.8339,0.834,0.8337,0,0,0,0,0,0,0.8244,0.8247,0.825,0.8261,0.8264,0.8278,0.8278,0.828,0.8285,0.8285,0.8295,0.8297,0.8302,0.8312,0.8315,0.8318,0.8314,0.8339,0.8339,0.834,0.8337,0.8337,0.8338,0,0,0,0,0,0.8243,0.8249,0.8251,0.8253,0.8268,0.8278,0.828,0.8286,0.8285,0.8288,0.8295,0.8297,0.8316,0.8313,0.8316,0.8319,0.8339,0.8339,0.834,0.8337,0.8337,0.8338,0,0,0,0,0,0,0.8238,0.825,0.8252,0.8261,0.8269,0.8279,0.8283,0.8286,0.8293,0.8293,0.83,0.8302,0.8312,0.8317,0.8313,0.8328,0.8328,0.8328,0.8325,0.8325,0.8325,0.8324,0.8315,0,0,0,0,0,0.8238,0.8245,0.8255,0.8263,0.8266,0.8274,0.8279,0.8282,0.829,0.8293,0.83,0.8308,0.8316,0.8321,0.8328,0.8338,0.834,0.8342,0.8342,0.8342,0.8343,0.8349,0.835,0.8341,0.8341,0.8341,0,0,0.8238,0.8246,0.825,0.8262,0.8268,0.8275,0.8277,0.8284,0.829,0.8295,0.8304,0.8309,0.8318,0.8328,0.8333,0.8332,0.8346,0.8343,0.8343,0.8343,0.8349,0.835,0.8351,0.8341,0.8341,0.8341,0,0,0.8242,0.8248,0.8255,0.8261,0.8271,0.8276,0.8278,0.8288,0.8292,0.8302,0.8305,0.8312,0.8326,0.8332,0.8337,0.8344,0.8347,0.8347,0.8348,0.8354,0.8355,0.8355,0.8358,0.8359,0.8348,0.8348,0.8348,0,0.8241,0.8252,0.8258,0.8266,0.8271,0.8276,0.8283,0.8289,0.8301,0.8304,0.8304,0.8321,0.8328,0.8339,0.8341,0.8345,0.8347,0.8345,0.8354,0.8355,0.8355,0.8358,0.8359,0.8347,0.8347,0.8347,0.8347,0,0.825,0.8258,0.8262,0.8273,0.8279,0.8287,0.8294,0.83,0.8303,0.8309,0.8319,0.8327,0.8337,0.834,0.8343,0.8352,0.8352,0.8353,0.8352,0.8356,0.8358,0.836,0.8347,0.8347,0.8347,0.8347,0,0,0.825,0.8266,0.8267,0.8272,0.8284,0.829,0.8298,0.8307,0.8312,0.832,0.8327,0.8339,0.834,0.8346,0.835,0.8355,0.8361,0.8355,0.8356,0.8356,0.8371,0.837,0.8371,0.8362,0.8363,0.8363,0.837,0,0.8255,0.8269,0.8276,0.8287,0.8295,0.83,0.8307,0.8315,0.832,0.8328,0.8334,0.8342,0.8343,0.8347,0.8352,0.8359,0.8364,0.8358,0.8369,0.8369,0.8366,0.8372,0.8371,0.8378,0.8371,0.8371,0.8372,0,0.8263,0.8271,0.8283,0.8294,0.8298,0.8304,0.8314,0.8321,0.833,0.8334,0.834,0.8345,0.8354,0.8353,0.8365,0.8361,0.8366,0.837,0.8371,0.8372,0.837,0.8373,0.838,0.8381,0.8373,0.8373,0.8373,0,0.8262,0.8276,0.8286,0.829,0.8303,0.8307,0.8313,0.8322,0.8328,0.8336,0.834,0.835,0.8355,0.8362,0.8369,0.8368,0.8381,0.8381,0.8385,0.8385,0.8387,0.8386,0.8394,0.839,0.839,0.839,0.839,0,0.8267,0.8274,0.8286,0.8291,0.83,0.8307,0.8315,0.8321,0.833,0.8337,0.8342,0.8349,0.8358,0.8365,0.8371,0.8381,0.8383,0.8386,0.8388,0.8386,0.8385,0.8389,0.8388,0.8391,0.8391,0.839,0.839,0,0.8267,0.8275,0.8285,0.8297,0.83,0.8306,0.8316,0.8322,0.8328,0.8337,0.834,0.835,0.8359,0.8367,0.838,0.8383,0.8393,0.8395,0.839,0.8391,0.8394,0.8394,0.8404,0.8406,0.8401,0.8401,0.8401,0,0.827,0.8275,0.8288,0.8293,0.8299,0.8307,0.8313,0.8321,0.8327,0.8338,0.8343,0.8353,0.8361,0.8377,0.8385,0.8395,0.8396,0.8399,0.8398,0.8396,0.8396,0.8396,0.8397,0.8399,0.8399,0.8399,0.8399,0,0.8273,0.8277,0.8285,0.8295,0.8302,0.831,0.8319,0.8323,0.8332,0.8339,0.8349,0.8355,0.8368,0.8378,0.8389,0.8395,0.8399,0.84,0.8401,0.8399,0.8396,0.8398,0.839,0.84,0.84,0.84,0.84,0.84,0.8275,0.828,0.829,0.8299,0.8307,0.8314,0.8321,0.8328,0.8336,0.8348,0.8352,0.8362,0.8372,0.8387,0.8393,0.8401,0.8402,0.8404,0.8404,0.8405,0.8404,0.8395,0.8403,0.8403,0.8403,0.8403,0.8403,0,0.8279,0.8286,0.8294,0.8306,0.8313,0.8316,0.8326,0.8332,0.8341,0.835,0.8358,0.837,0.838,0.8389,0.8399,0.8404,0.8406,0.8407,0.8406,0.8408,0.8403,0.8401,0.8405,0.8405,0.8405,0.8405,0.8405,0.8405,0.8282,0.8291,0.8296,0.831,0.8317,0.8327,0.8332,0.8339,0.8346,0.8359,0.8368,0.8374,0.8383,0.8394,0.8404,0.8406,0.841,0.841,0.8413,0.8408,0.8408,0.8408,0.8406,0.841,0.841,0.8416,0.8416,0.8416]},{"header":{"parameterUnit":"m.s-1","parameterCategory":1,"la1":30.2991,"la2":30.254,"lo1":-89.0895,"lo2":-89.0444,"dy":0.0017,"dx":0.0017,"nx":28,"ny":28,"refTime":"2025-09-19T03:00:00:Z","depth":0,"parameterNumber":3,"parameterNumberName":"V-component_of_WINDS"},"data":[0,0,0,0,0,0,0,0,0,0,0,0,0,0,0,0,0,0,0,0,0,0,0,0,0,0,0,0,0,0,0,0,0,0,0,0,0,0,0,0,0,0,0,0,0,0,0,0,0,0,0,0,0,0,0,0,0,0,-2.0165,-2.0165,0,-2.0192,-2.0193,-2.0193,-2.0183,-2.0183,-2.0182,-2.0182,-2.0209,-2.021,-2.0211,0,0,0,0,0,0,0,0,0,0,0,0,0,-2.0103,-2.0104,-2.0165,-2.0165,-2.0166,-2.0192,-2.0193,-2.0193,-2.0184,-2.0183,-2.0182,-2.0181,-2.0208,-2.021,-2.0211,0,0,0,0,0,0,0,0,0,0,0,0,0,-2.013,-2.0105,-2.0165,-2.0164,-2.0164,-2.0192,-2.0193,-2.0193,-2.0184,-2.0183,-2.0182,-2.0181,-2.0208,-2.0209,-2.0211,-2.0241,0,0,-2.0217,-2.0218,0,0,0,0,0,0,0,0,-2.0129,-2.0133,-2.0164,-2.0164,-2.0164,-2.0184,-2.0181,-2.0209,-2.0184,-2.0176,-2.0182,-2.0181,-2.0201,-2.0203,-2.021,-2.0243,-2.0244,-2.0217,-2.0219,-2.0219,-2.022,0,0,0,0,0,0,0,-2.0127,-2.0131,-2.0176,-2.0164,-2.0165,-2.0162,-2.0165,-2.0186,-2.0193,-2.0177,-2.0176,-2.018,-2.0201,-2.0209,-2.0211,-2.0244,-2.0217,-2.0219,-2.022,-2.0221,-2.0305,-2.0306,0,0,0,0,0,0,-2.0125,-2.013,-2.0175,-2.0177,-2.0144,-2.0164,-2.0167,-2.0178,-2.0193,-2.0194,-2.0181,-2.0179,-2.0206,-2.0209,-2.0212,-2.025,-2.0219,-2.0221,-2.0222,-2.0304,-2.0305,-2.0306,0,0,0,0,0,0,-2.0124,-2.0129,-2.0174,-2.0153,-2.0159,-2.0166,-2.0179,-2.0179,-2.0187,-2.0196,-2.0197,-2.0187,-2.0205,-2.0209,-2.0235,-2.0251,-2.0222,-2.0224,-2.0302,-2.0304,-2.0305,-2.0325,0,0,0,0,0,0,-2.0122,-2.0129,-2.014,-2.0153,-2.016,-2.0196,-2.018,-2.0181,-2.0191,-2.0189,-2.0202,-2.0204,-2.0205,-2.0232,-2.0237,-2.0253,-2.0225,-2.0301,-2.0303,-2.0305,-2.0323,-2.0327,-2.033,0,0,0,0,0,-2.012,-2.0144,-2.0141,-2.0146,-2.0174,-2.0197,-2.0201,-2.0202,-2.0192,-2.0204,-2.021,-2.0203,-2.0248,-2.0235,-2.024,-2.0257,-2.03,-2.0302,-2.0305,-2.0321,-2.0326,-2.033,0,0,0,0,0,0,-2.0131,-2.0145,-2.0142,-2.0171,-2.0183,-2.0196,-2.021,-2.0207,-2.0221,-2.0219,-2.022,-2.0223,-2.025,-2.0255,-2.024,-2.0288,-2.0272,-2.0276,-2.0283,-2.0288,-2.0292,-2.029,-2.0227,0,0,0,0,0,-2.0137,-2.0155,-2.0166,-2.0191,-2.0197,-2.0203,-2.0213,-2.0213,-2.0225,-2.023,-2.0237,-2.0249,-2.0266,-2.0277,-2.0293,-2.0323,-2.0327,-2.0337,-2.0341,-2.0344,-2.0348,-2.0366,-2.0372,-2.0314,-2.0314,-2.0314,0,0,-2.015,-2.016,-2.0171,-2.0193,-2.0203,-2.0221,-2.0207,-2.0227,-2.0241,-2.0232,-2.0258,-2.0264,-2.0277,-2.0306,-2.0319,-2.0312,-2.0364,-2.0347,-2.035,-2.0352,-2.0369,-2.0375,-2.038,-2.0316,-2.0315,-2.0315,0,0,-2.0182,-2.0191,-2.0213,-2.0223,-2.0238,-2.0242,-2.0247,-2.026,-2.0265,-2.029,-2.0285,-2.0301,-2.033,-2.034,-2.0349,-2.0387,-2.0382,-2.0392,-2.0412,-2.043,-2.0435,-2.0439,-2.0454,-2.0459,-2.0395,-2.0395,-2.0395,0,-2.0196,-2.0224,-2.0225,-2.0246,-2.0257,-2.0251,-2.0274,-2.0284,-2.0302,-2.031,-2.0301,-2.0339,-2.0347,-2.0379,-2.0388,-2.0395,-2.0402,-2.0391,-2.0434,-2.0438,-2.0442,-2.0457,-2.0462,-2.0396,-2.0396,-2.0396,-2.0396,0,-2.0241,-2.026,-2.0277,-2.0296,-2.0309,-2.033,-2.0335,-2.0348,-2.0347,-2.0352,-2.0379,-2.0388,-2.0407,-2.0414,-2.0413,-2.0447,-2.0442,-2.0434,-2.0419,-2.0449,-2.0463,-2.0468,-2.0398,-2.0398,-2.0397,-2.0397,0,0,-2.0281,-2.0302,-2.0308,-2.0318,-2.0335,-2.035,-2.0372,-2.0391,-2.0402,-2.0415,-2.0434,-2.0459,-2.0453,-2.0463,-2.0463,-2.0478,-2.051,-2.0468,-2.0469,-2.0477,-2.055,-2.0558,-2.0564,-2.0507,-2.0508,-2.0509,-2.055,0,-2.0316,-2.0356,-2.0358,-2.0394,-2.0413,-2.0408,-2.0428,-2.044,-2.0445,-2.0462,-2.0468,-2.0486,-2.0475,-2.0481,-2.0496,-2.0503,-2.0525,-2.05,-2.0525,-2.0526,-2.0524,-2.0571,-2.0578,-2.0617,-2.0555,-2.0556,-2.0556,0,-2.0363,-2.0379,-2.0417,-2.0433,-2.0441,-2.0458,-2.0477,-2.0493,-2.0507,-2.051,-2.0522,-2.052,-2.0543,-2.0527,-2.0559,-2.0542,-2.0552,-2.0557,-2.0559,-2.0562,-2.0544,-2.0577,-2.0629,-2.0635,-2.0564,-2.0564,-2.0563,0,-2.0391,-2.0422,-2.045,-2.0458,-2.0476,-2.0489,-2.0497,-2.051,-2.0522,-2.0538,-2.0546,-2.0564,-2.0574,-2.0588,-2.0592,-2.0579,-2.0625,-2.0608,-2.0629,-2.0629,-2.0639,-2.0639,-2.0695,-2.0643,-2.0643,-2.0643,-2.0643,0,-2.0431,-2.0455,-2.0463,-2.048,-2.0507,-2.0509,-2.0536,-2.0543,-2.0555,-2.0574,-2.057,-2.0587,-2.059,-2.0608,-2.0611,-2.0638,-2.0642,-2.0646,-2.0647,-2.0647,-2.0647,-2.0655,-2.0653,-2.0645,-2.0644,-2.0644,-2.0644,0,-2.0468,-2.0474,-2.0504,-2.0519,-2.0523,-2.0543,-2.0556,-2.0572,-2.0577,-2.0601,-2.0607,-2.0615,-2.0636,-2.0641,-2.0666,-2.0667,-2.0701,-2.0698,-2.0697,-2.0697,-2.0718,-2.0717,-2.0782,-2.0792,-2.0732,-2.0733,-2.0733,0,-2.0494,-2.0512,-2.053,-2.0543,-2.0552,-2.0572,-2.0585,-2.0588,-2.0601,-2.0619,-2.0634,-2.0655,-2.0673,-2.0707,-2.0715,-2.0734,-2.0733,-2.0755,-2.0736,-2.0737,-2.0736,-2.0735,-2.0738,-2.0759,-2.0759,-2.076,-2.076,0,-2.054,-2.0542,-2.0561,-2.0582,-2.0597,-2.0613,-2.0628,-2.0638,-2.0644,-2.0659,-2.0681,-2.0695,-2.0721,-2.0743,-2.0763,-2.0771,-2.0767,-2.0766,-2.0772,-2.0774,-2.0773,-2.0776,-2.0708,-2.0765,-2.0764,-2.0764,-2.0764,-2.0764,-2.0573,-2.059,-2.0606,-2.0628,-2.064,-2.0654,-2.0671,-2.0679,-2.0698,-2.0721,-2.0721,-2.0746,-2.0761,-2.0787,-2.0797,-2.0816,-2.081,-2.0818,-2.082,-2.0823,-2.0826,-2.0769,-2.082,-2.082,-2.0819,-2.0819,-2.0819,0,-2.0621,-2.0631,-2.0651,-2.0673,-2.069,-2.0686,-2.0702,-2.0717,-2.074,-2.0754,-2.0771,-2.0798,-2.0819,-2.0829,-2.0851,-2.0865,-2.0864,-2.087,-2.087,-2.0872,-2.083,-2.0823,-2.0871,-2.0871,-2.0871,-2.0871,-2.0871,-2.0871,-2.0648,-2.0678,-2.0682,-2.0718,-2.0728,-2.0753,-2.0763,-2.0777,-2.0789,-2.0819,-2.0837,-2.0844,-2.0857,-2.0879,-2.0899,-2.0901,-2.091,-2.0918,-2.092,-2.088,-2.0875,-2.087,-2.0864,-2.0919,-2.0919,-2.0961,-2.0961,-2.0962]}]]